Missouri River (Missouri), Napolean (06894650)

StateMissouriLatestUnknown (77600 cfs)
RiverMissouri RiverRatingObservedEstimated
Updated2020-08-14 6:00 (39 minutes ago)Flood - The river is flooding. Obstacles can be treacherous or deadly. The river should be avoided at this stage for casual trips and definitely for the inexperienced. Trips should be attempted only with protective gear and equipment.Flood(none)(none)
Discharge77600 cfs (median: 63200 cfs)High - The river is high and potentially dangerous, especially for the young and / or inexperienced. Normal stream obstacles are sometimes difficult to navigate. Extended distances can be attempted, but canoe travel may not be advisable.High(none)(none)
Height12.92 feetGood - Conditions are ideal for a canoe or kayak. Boats typically will drag on fewer than one-quarter of riffles, if at all, and portages are unnecessary or rare. Normal float lengths can be attempted without a problem.Good(none)(none)
TrendFalling (falling over 24 hours)Low - River is low but can still be floated. Some riffles are okay but most come with significant dragging and might need a portage. Float lengths should be reduced to accommodate low flow, dragging, and portages.Low(none)(none)
USGSExternal icon USGS Site (External icon Google Maps)Poor - River is too low to float comfortably. Most or all riffles will drag or must be portaged and some obstacles (such as slick shelf rock) cause undue problems. Avoid the river at this stage for casual paddling trips.Poor(none)(none)

Trending Data

Plot Image

Trips for Missouri River (Missouri), Napolean (06894650)

DateStartEndDistanceConditionDischargeHeightFishingDetails

A total of 0 rows are displayed.

Condition Descriptions

Fishing Conditions

Fish Species

Notes

Classic Trip List

The classic River Trips application is still available for use. It is updated with the new system using a data retrofit. It is no longer maintained. The original River Trips application is no longer updated (as of 1 Dec 2016) but can be checked for errors or for the condition of the data before it was converted to the new system.

Gauge Data Table

ObservationHeightDischargeMaximum
Discharge
Minimum
Discharge
Mean
Discharge
P05P10P20P25P50
(Median)
P75P80P90P95
2020-08-14 06:00 12.92 77600 132000 (2019) 45500 (2017) 76400 48800 53700 63200 106000 121000
2020-08-14 05:00 12.96 77900 132000 (2019) 45500 (2017) 76400 48800 53700 63200 106000 121000
2020-08-14 04:00 12.95 77800 132000 (2019) 45500 (2017) 76400 48800 53700 63200 106000 121000
2020-08-14 03:00 12.97 77900 132000 (2019) 45500 (2017) 76400 48800 53700 63200 106000 121000
2020-08-14 02:00 13.00 78200 132000 (2019) 45500 (2017) 76400 48800 53700 63200 106000 121000
2020-08-14 01:00 12.99 78100 132000 (2019) 45500 (2017) 76400 48800 53700 63200 106000 121000
2020-08-14 00:00 13.02 78300 132000 (2019) 45500 (2017) 76400 48800 53700 63200 106000 121000
2020-08-13 23:00 13.01 78300 126000 (2019) 45900 (2017) 73700 46600 47600 68000 103000 117000
2020-08-13 22:00 13.01 78300 126000 (2019) 45900 (2017) 73700 46600 47600 68000 103000 117000
2020-08-13 21:00 13.02 78300 126000 (2019) 45900 (2017) 73700 46600 47600 68000 103000 117000
2020-08-13 20:00 13.03 78400 126000 (2019) 45900 (2017) 73700 46600 47600 68000 103000 117000
2020-08-13 19:00 13.04 78500 126000 (2019) 45900 (2017) 73700 46600 47600 68000 103000 117000
2020-08-13 18:00 13.06 78600 126000 (2019) 45900 (2017) 73700 46600 47600 68000 103000 117000
2020-08-13 17:00 13.08 78800 126000 (2019) 45900 (2017) 73700 46600 47600 68000 103000 117000
2020-08-13 16:00 13.10 79000 126000 (2019) 45900 (2017) 73700 46600 47600 68000 103000 117000
2020-08-13 15:00 13.09 78900 126000 (2019) 45900 (2017) 73700 46600 47600 68000 103000 117000
2020-08-13 14:00 13.09 78900 126000 (2019) 45900 (2017) 73700 46600 47600 68000 103000 117000
2020-08-13 13:00 13.11 80200 126000 (2019) 45900 (2017) 73700 46600 47600 68000 103000 117000
2020-08-13 12:00 13.12 80300 126000 (2019) 45900 (2017) 73700 46600 47600 68000 103000 117000
2020-08-13 11:00 13.13 80400 126000 (2019) 45900 (2017) 73700 46600 47600 68000 103000 117000
2020-08-13 10:00 13.13 80400 126000 (2019) 45900 (2017) 73700 46600 47600 68000 103000 117000
2020-08-13 09:00 13.15 80500 126000 (2019) 45900 (2017) 73700 46600 47600 68000 103000 117000
2020-08-13 08:00 13.16 80600 126000 (2019) 45900 (2017) 73700 46600 47600 68000 103000 117000
2020-08-13 07:00 13.16 80600 126000 (2019) 45900 (2017) 73700 46600 47600 68000 103000 117000
2020-08-13 06:00 13.17 80700 126000 (2019) 45900 (2017) 73700 46600 47600 68000 103000 117000
2020-08-13 05:00 13.16 80600 126000 (2019) 45900 (2017) 73700 46600 47600 68000 103000 117000
2020-08-13 04:00 13.16 80600 126000 (2019) 45900 (2017) 73700 46600 47600 68000 103000 117000
2020-08-13 03:00 13.15 80500 126000 (2019) 45900 (2017) 73700 46600 47600 68000 103000 117000
2020-08-13 02:00 13.15 80500 126000 (2019) 45900 (2017) 73700 46600 47600 68000 103000 117000
2020-08-13 01:00 13.15 80500 126000 (2019) 45900 (2017) 73700 46600 47600 68000 103000 117000
2020-08-13 00:00 13.16 80600 126000 (2019) 45900 (2017) 73700 46600 47600 68000 103000 117000
2020-08-12 23:00 13.15 80500 122000 (2019) 46600 (2017) 75800 47100 47700 79500 102000 114000
2020-08-12 22:00 13.14 80400 122000 (2019) 46600 (2017) 75800 47100 47700 79500 102000 114000
2020-08-12 21:00 13.13 80400 122000 (2019) 46600 (2017) 75800 47100 47700 79500 102000 114000
2020-08-12 20:00 13.13 80400 122000 (2019) 46600 (2017) 75800 47100 47700 79500 102000 114000
2020-08-12 19:00 13.13 80400 122000 (2019) 46600 (2017) 75800 47100 47700 79500 102000 114000
2020-08-12 18:00 13.12 80300 122000 (2019) 46600 (2017) 75800 47100 47700 79500 102000 114000
2020-08-12 17:00 13.11 80200 122000 (2019) 46600 (2017) 75800 47100 47700 79500 102000 114000
2020-08-12 16:00 13.09 80100 122000 (2019) 46600 (2017) 75800 47100 47700 79500 102000 114000
2020-08-12 15:00 13.11 80200 122000 (2019) 46600 (2017) 75800 47100 47700 79500 102000 114000
2020-08-12 14:00 13.00 79300 122000 (2019) 46600 (2017) 75800 47100 47700 79500 102000 114000
2020-08-12 13:00 13.10 80100 122000 (2019) 46600 (2017) 75800 47100 47700 79500 102000 114000
2020-08-12 12:00 13.10 80100 122000 (2019) 46600 (2017) 75800 47100 47700 79500 102000 114000
2020-08-12 11:00 13.09 80100 122000 (2019) 46600 (2017) 75800 47100 47700 79500 102000 114000
2020-08-12 10:00 13.09 80100 122000 (2019) 46600 (2017) 75800 47100 47700 79500 102000 114000
2020-08-12 09:00 13.09 80100 122000 (2019) 46600 (2017) 75800 47100 47700 79500 102000 114000
2020-08-12 08:00 13.09 80100 122000 (2019) 46600 (2017) 75800 47100 47700 79500 102000 114000
2020-08-12 07:00 13.08 80000 122000 (2019) 46600 (2017) 75800 47100 47700 79500 102000 114000
2020-08-12 06:00 13.09 80100 122000 (2019) 46600 (2017) 75800 47100 47700 79500 102000 114000
2020-08-12 05:00 13.09 80100 122000 (2019) 46600 (2017) 75800 47100 47700 79500 102000 114000
2020-08-12 04:00 13.10 80100 122000 (2019) 46600 (2017) 75800 47100 47700 79500 102000 114000
2020-08-12 03:00 13.09 80100 122000 (2019) 46600 (2017) 75800 47100 47700 79500 102000 114000
2020-08-12 02:00 13.09 80100 122000 (2019) 46600 (2017) 75800 47100 47700 79500 102000 114000
2020-08-12 01:00 13.09 80100 122000 (2019) 46600 (2017) 75800 47100 47700 79500 102000 114000
2020-08-12 00:00 13.10 80100 122000 (2019) 46600 (2017) 75800 47100 47700 79500 102000 114000
2020-08-11 23:00 13.09 80100 121000 (2019) 47700 (2017) 77800 48000 48300 80100 106000 115000
2020-08-11 22:00 13.09 80100 121000 (2019) 47700 (2017) 77800 48000 48300 80100 106000 115000
2020-08-11 21:00 13.08 80000 121000 (2019) 47700 (2017) 77800 48000 48300 80100 106000 115000
2020-08-11 20:00 13.10 80100 121000 (2019) 47700 (2017) 77800 48000 48300 80100 106000 115000
2020-08-11 19:00 13.11 80200 121000 (2019) 47700 (2017) 77800 48000 48300 80100 106000 115000
2020-08-11 18:00 13.11 80200 121000 (2019) 47700 (2017) 77800 48000 48300 80100 106000 115000
2020-08-11 17:00 13.10 80100 121000 (2019) 47700 (2017) 77800 48000 48300 80100 106000 115000
2020-08-11 16:00 13.12 80300 121000 (2019) 47700 (2017) 77800 48000 48300 80100 106000 115000
2020-08-11 15:00 13.14 80400 121000 (2019) 47700 (2017) 77800 48000 48300 80100 106000 115000
2020-08-11 14:00 13.14 80400 121000 (2019) 47700 (2017) 77800 48000 48300 80100 106000 115000
2020-08-11 13:00 13.14 80400 121000 (2019) 47700 (2017) 77800 48000 48300 80100 106000 115000
2020-08-11 12:00 13.13 80400 121000 (2019) 47700 (2017) 77800 48000 48300 80100 106000 115000
2020-08-11 11:00 13.14 80400 121000 (2019) 47700 (2017) 77800 48000 48300 80100 106000 115000
2020-08-11 10:00 13.16 80600 121000 (2019) 47700 (2017) 77800 48000 48300 80100 106000 115000
2020-08-11 09:00 13.16 80600 121000 (2019) 47700 (2017) 77800 48000 48300 80100 106000 115000
2020-08-11 08:00 13.18 80800 121000 (2019) 47700 (2017) 77800 48000 48300 80100 106000 115000
2020-08-11 07:00 13.20 80900 121000 (2019) 47700 (2017) 77800 48000 48300 80100 106000 115000
2020-08-11 06:00 13.20 80900 121000 (2019) 47700 (2017) 77800 48000 48300 80100 106000 115000
2020-08-11 05:00 13.21 81000 121000 (2019) 47700 (2017) 77800 48000 48300 80100 106000 115000
2020-08-11 04:00 13.23 81200 121000 (2019) 47700 (2017) 77800 48000 48300 80100 106000 115000
2020-08-11 03:00 13.24 81200 121000 (2019) 47700 (2017) 77800 48000 48300 80100 106000 115000
2020-08-11 02:00 13.25 81300 121000 (2019) 47700 (2017) 77800 48000 48300 80100 106000 115000
2020-08-11 01:00 13.27 81500 121000 (2019) 47700 (2017) 77800 48000 48300 80100 106000 115000
2020-08-11 00:00 13.29 81600 121000 (2019) 47700 (2017) 77800 48000 48300 80100 106000 115000
2020-08-10 23:00 13.30 81700 123000 (2019) 48800 (2017) 73500 49100 49500 65100 102000 114000
2020-08-10 22:00 13.31 81800 123000 (2019) 48800 (2017) 73500 49100 49500 65100 102000 114000
2020-08-10 21:00 13.34 82000 123000 (2019) 48800 (2017) 73500 49100 49500 65100 102000 114000
2020-08-10 20:00 13.33 82000 123000 (2019) 48800 (2017) 73500 49100 49500 65100 102000 114000
2020-08-10 19:00 13.35 82100 123000 (2019) 48800 (2017) 73500 49100 49500 65100 102000 114000
2020-08-10 18:00 13.35 82100 123000 (2019) 48800 (2017) 73500 49100 49500 65100 102000 114000
2020-08-10 17:00 13.40 82500 123000 (2019) 48800 (2017) 73500 49100 49500 65100 102000 114000
2020-08-10 16:00 13.40 82500 123000 (2019) 48800 (2017) 73500 49100 49500 65100 102000 114000
2020-08-10 15:00 13.40 82500 123000 (2019) 48800 (2017) 73500 49100 49500 65100 102000 114000
2020-08-10 14:00 13.42 82700 123000 (2019) 48800 (2017) 73500 49100 49500 65100 102000 114000
2020-08-10 13:00 13.43 82800 123000 (2019) 48800 (2017) 73500 49100 49500 65100 102000 114000
2020-08-10 12:00 13.45 82900 123000 (2019) 48800 (2017) 73500 49100 49500 65100 102000 114000
2020-08-10 11:00 13.44 82800 123000 (2019) 48800 (2017) 73500 49100 49500 65100 102000 114000
2020-08-10 10:00 13.45 82900 123000 (2019) 48800 (2017) 73500 49100 49500 65100 102000 114000
2020-08-10 09:00 13.45 82900 123000 (2019) 48800 (2017) 73500 49100 49500 65100 102000 114000
2020-08-10 08:00 13.45 82900 123000 (2019) 48800 (2017) 73500 49100 49500 65100 102000 114000
2020-08-10 07:00 13.46 83000 123000 (2019) 48800 (2017) 73500 49100 49500 65100 102000 114000
2020-08-10 06:00 13.45 82900 123000 (2019) 48800 (2017) 73500 49100 49500 65100 102000 114000
2020-08-10 05:00 13.44 82800 123000 (2019) 48800 (2017) 73500 49100 49500 65100 102000 114000
2020-08-10 04:00 13.46 83000 123000 (2019) 48800 (2017) 73500 49100 49500 65100 102000 114000
2020-08-10 03:00 13.45 82900 123000 (2019) 48800 (2017) 73500 49100 49500 65100 102000 114000
2020-08-10 02:00 13.43 82800 123000 (2019) 48800 (2017) 73500 49100 49500 65100 102000 114000
2020-08-10 01:00 13.42 82700 123000 (2019) 48800 (2017) 73500 49100 49500 65100 102000 114000
2020-08-10 00:00 13.40 82500 123000 (2019) 48800 (2017) 73500 49100 49500 65100 102000 114000
2020-08-09 23:00 13.37 82300 125000 (2019) 50000 (2017) 73500 50400 50900 60200 103000 116000
2020-08-09 22:00 13.35 82100 125000 (2019) 50000 (2017) 73500 50400 50900 60200 103000 116000
2020-08-09 21:00 13.35 82100 125000 (2019) 50000 (2017) 73500 50400 50900 60200 103000 116000
2020-08-09 20:00 13.32 81900 125000 (2019) 50000 (2017) 73500 50400 50900 60200 103000 116000
2020-08-09 19:00 13.29 81600 125000 (2019) 50000 (2017) 73500 50400 50900 60200 103000 116000
2020-08-09 18:00 13.27 81500 125000 (2019) 50000 (2017) 73500 50400 50900 60200 103000 116000
2020-08-09 17:00 13.24 81200 125000 (2019) 50000 (2017) 73500 50400 50900 60200 103000 116000
2020-08-09 16:00 13.24 81200 125000 (2019) 50000 (2017) 73500 50400 50900 60200 103000 116000
2020-08-09 15:00 13.19 80800 125000 (2019) 50000 (2017) 73500 50400 50900 60200 103000 116000
2020-08-09 14:00 13.19 80800 125000 (2019) 50000 (2017) 73500 50400 50900 60200 103000 116000
2020-08-09 13:00 13.17 80700 125000 (2019) 50000 (2017) 73500 50400 50900 60200 103000 116000
2020-08-09 12:00 13.13 80400 125000 (2019) 50000 (2017) 73500 50400 50900 60200 103000 116000
2020-08-09 11:00 13.11 80200 125000 (2019) 50000 (2017) 73500 50400 50900 60200 103000 116000
2020-08-09 10:00 13.11 80200 125000 (2019) 50000 (2017) 73500 50400 50900 60200 103000 116000
2020-08-09 09:00 13.09 80100 125000 (2019) 50000 (2017) 73500 50400 50900 60200 103000 116000
2020-08-09 08:00 13.09 80100 125000 (2019) 50000 (2017) 73500 50400 50900 60200 103000 116000
2020-08-09 07:00 13.07 79900 125000 (2019) 50000 (2017) 73500 50400 50900 60200 103000 116000
2020-08-09 06:00 13.03 79600 125000 (2019) 50000 (2017) 73500 50400 50900 60200 103000 116000
2020-08-09 05:00 13.02 79500 125000 (2019) 50000 (2017) 73500 50400 50900 60200 103000 116000
2020-08-09 04:00 13.00 79300 125000 (2019) 50000 (2017) 73500 50400 50900 60200 103000 116000
2020-08-09 03:00 12.97 79100 125000 (2019) 50000 (2017) 73500 50400 50900 60200 103000 116000
2020-08-09 02:00 12.95 79000 125000 (2019) 50000 (2017) 73500 50400 50900 60200 103000 116000
2020-08-09 01:00 12.91 78600 125000 (2019) 50000 (2017) 73500 50400 50900 60200 103000 116000
2020-08-09 00:00 12.91 78600 125000 (2019) 50000 (2017) 73500 50400 50900 60200 103000 116000
2020-08-08 23:00 12.91 78600 128000 (2019) 53100 (2017) 76200 53400 53800 63500 105000 119000
2020-08-08 22:00 12.90 78600 128000 (2019) 53100 (2017) 76200 53400 53800 63500 105000 119000
2020-08-08 21:00 12.88 78400 128000 (2019) 53100 (2017) 76200 53400 53800 63500 105000 119000
2020-08-08 20:00 12.87 78300 128000 (2019) 53100 (2017) 76200 53400 53800 63500 105000 119000
2020-08-08 19:00 12.87 78300 128000 (2019) 53100 (2017) 76200 53400 53800 63500 105000 119000
2020-08-08 18:00 12.87 78300 128000 (2019) 53100 (2017) 76200 53400 53800 63500 105000 119000
2020-08-08 17:00 12.87 78300 128000 (2019) 53100 (2017) 76200 53400 53800 63500 105000 119000
2020-08-08 16:00 12.88 78400 128000 (2019) 53100 (2017) 76200 53400 53800 63500 105000 119000
2020-08-08 15:00 12.87 78300 128000 (2019) 53100 (2017) 76200 53400 53800 63500 105000 119000
2020-08-08 14:00 12.87 78300 128000 (2019) 53100 (2017) 76200 53400 53800 63500 105000 119000
2020-08-08 13:00 12.85 78200 128000 (2019) 53100 (2017) 76200 53400 53800 63500 105000 119000
2020-08-08 12:00 12.83 78000 128000 (2019) 53100 (2017) 76200 53400 53800 63500 105000 119000
2020-08-08 11:00 12.79 77700 128000 (2019) 53100 (2017) 76200 53400 53800 63500 105000 119000
2020-08-08 10:00 12.77 77600 128000 (2019) 53100 (2017) 76200 53400 53800 63500 105000 119000
2020-08-08 09:00 12.74 77300 128000 (2019) 53100 (2017) 76200 53400 53800 63500 105000 119000
2020-08-08 08:00 12.70 77000 128000 (2019) 53100 (2017) 76200 53400 53800 63500 105000 119000
2020-08-08 07:00 12.71 77100 128000 (2019) 53100 (2017) 76200 53400 53800 63500 105000 119000
2020-08-08 06:00 12.70 77000 128000 (2019) 53100 (2017) 76200 53400 53800 63500 105000 119000
2020-08-08 05:00 12.73 77200 128000 (2019) 53100 (2017) 76200 53400 53800 63500 105000 119000
2020-08-08 04:00 12.70 77000 128000 (2019) 53100 (2017) 76200 53400 53800 63500 105000 119000
2020-08-08 03:00 12.71 77100 128000 (2019) 53100 (2017) 76200 53400 53800 63500 105000 119000
2020-08-08 02:00 12.72 77200 128000 (2019) 53100 (2017) 76200 53400 53800 63500 105000 119000
2020-08-08 01:00 12.74 77300 128000 (2019) 53100 (2017) 76200 53400 53800 63500 105000 119000
2020-08-08 00:00 12.74 77300 128000 (2019) 53100 (2017) 76200 53400 53800 63500 105000 119000
2020-08-07 23:00 12.74 77300 128000 (2019) 56800 (2016) 80300 58800 61700 68600 105000 119000
2020-08-07 22:00 12.75 77400 128000 (2019) 56800 (2016) 80300 58800 61700 68600 105000 119000
2020-08-07 21:00 12.77 77600 128000 (2019) 56800 (2016) 80300 58800 61700 68600 105000 119000
2020-08-07 20:00 12.77 77600 128000 (2019) 56800 (2016) 80300 58800 61700 68600 105000 119000
2020-08-07 19:00 12.77 77600 128000 (2019) 56800 (2016) 80300 58800 61700 68600 105000 119000
2020-08-07 18:00 12.78 77600 128000 (2019) 56800 (2016) 80300 58800 61700 68600 105000 119000
2020-08-07 17:00 12.77 77600 128000 (2019) 56800 (2016) 80300 58800 61700 68600 105000 119000
2020-08-07 16:00 12.78 77600 128000 (2019) 56800 (2016) 80300 58800 61700 68600 105000 119000
2020-08-07 15:00 12.79 77700 128000 (2019) 56800 (2016) 80300 58800 61700 68600 105000 119000
2020-08-07 14:00 12.78 77600 128000 (2019) 56800 (2016) 80300 58800 61700 68600 105000 119000
2020-08-07 13:00 12.77 77600 128000 (2019) 56800 (2016) 80300 58800 61700 68600 105000 119000
2020-08-07 12:00 12.75 77400 128000 (2019) 56800 (2016) 80300 58800 61700 68600 105000 119000
2020-08-07 11:00 12.75 77400 128000 (2019) 56800 (2016) 80300 58800 61700 68600 105000 119000
2020-08-07 10:00 12.76 77500 128000 (2019) 56800 (2016) 80300 58800 61700 68600 105000 119000
2020-08-07 09:00 12.75 77400 128000 (2019) 56800 (2016) 80300 58800 61700 68600 105000 119000
2020-08-07 08:00 12.75 77400 128000 (2019) 56800 (2016) 80300 58800 61700 68600 105000 119000
2020-08-07 07:00 12.74 77300 128000 (2019) 56800 (2016) 80300 58800 61700 68600 105000 119000
2020-08-07 06:00 12.74 77300 128000 (2019) 56800 (2016) 80300 58800 61700 68600 105000 119000
2020-08-07 05:00 12.73 77200 128000 (2019) 56800 (2016) 80300 58800 61700 68600 105000 119000
2020-08-07 04:00 12.73 77200 128000 (2019) 56800 (2016) 80300 58800 61700 68600 105000 119000
2020-08-07 03:00 12.74 77300 128000 (2019) 56800 (2016) 80300 58800 61700 68600 105000 119000
2020-08-07 02:00 12.73 77200 128000 (2019) 56800 (2016) 80300 58800 61700 68600 105000 119000
2020-08-07 01:00 12.72 77200 128000 (2019) 56800 (2016) 80300 58800 61700 68600 105000 119000
2020-08-07 00:00 12.73 77200 128000 (2019) 56800 (2016) 80300 58800 61700 68600 105000 119000
2020-08-06 23:00 12.72 77200 129000 (2019) 59300 (2016) 84400 61400 64400 81000 106000 120000
2020-08-06 22:00 12.71 77100 129000 (2019) 59300 (2016) 84400 61400 64400 81000 106000 120000
2020-08-06 21:00 12.73 77200 129000 (2019) 59300 (2016) 84400 61400 64400 81000 106000 120000
2020-08-06 20:00 12.71 77100 129000 (2019) 59300 (2016) 84400 61400 64400 81000 106000 120000
2020-08-06 19:00 12.72 77200 129000 (2019) 59300 (2016) 84400 61400 64400 81000 106000 120000
2020-08-06 18:00 12.75 77400 129000 (2019) 59300 (2016) 84400 61400 64400 81000 106000 120000
2020-08-06 17:00 12.75 77400 129000 (2019) 59300 (2016) 84400 61400 64400 81000 106000 120000
2020-08-06 16:00 12.77 77600 129000 (2019) 59300 (2016) 84400 61400 64400 81000 106000 120000
2020-08-06 15:00 12.77 77600 129000 (2019) 59300 (2016) 84400 61400 64400 81000 106000 120000
2020-08-06 14:00 12.77 77600 129000 (2019) 59300 (2016) 84400 61400 64400 81000 106000 120000
2020-08-06 13:00 12.76 77500 129000 (2019) 59300 (2016) 84400 61400 64400 81000 106000 120000
2020-08-06 12:00 12.77 77600 129000 (2019) 59300 (2016) 84400 61400 64400 81000 106000 120000
2020-08-06 11:00 12.78 77600 129000 (2019) 59300 (2016) 84400 61400 64400 81000 106000 120000
2020-08-06 10:00 12.78 77600 129000 (2019) 59300 (2016) 84400 61400 64400 81000 106000 120000
2020-08-06 09:00 12.77 77600 129000 (2019) 59300 (2016) 84400 61400 64400 81000 106000 120000
2020-08-06 08:00 12.78 77600 129000 (2019) 59300 (2016) 84400 61400 64400 81000 106000 120000
2020-08-06 07:00 12.78 77600 129000 (2019) 59300 (2016) 84400 61400 64400 81000 106000 120000
2020-08-06 06:00 12.76 77500 129000 (2019) 59300 (2016) 84400 61400 64400 81000 106000 120000
2020-08-06 05:00 12.75 77400 129000 (2019) 59300 (2016) 84400 61400 64400 81000 106000 120000
2020-08-06 04:00 12.73 77200 129000 (2019) 59300 (2016) 84400 61400 64400 81000 106000 120000
2020-08-06 03:00 12.73 77200 129000 (2019) 59300 (2016) 84400 61400 64400 81000 106000 120000
2020-08-06 02:00 12.70 77000 129000 (2019) 59300 (2016) 84400 61400 64400 81000 106000 120000
2020-08-06 01:00 12.69 76900 129000 (2019) 59300 (2016) 84400 61400 64400 81000 106000 120000
2020-08-06 00:00 12.66 76700 129000 (2019) 59300 (2016) 84400 61400 64400 81000 106000 120000
2020-08-05 23:00 12.63 76500 129000 (2019) 47400 (2017) 77500 49900 53500 70200 105000 119000
2020-08-05 22:00 12.60 76200 129000 (2019) 47400 (2017) 77500 49900 53500 70200 105000 119000
2020-08-05 21:00 12.57 76000 129000 (2019) 47400 (2017) 77500 49900 53500 70200 105000 119000
2020-08-05 20:00 12.54 75800 129000 (2019) 47400 (2017) 77500 49900 53500 70200 105000 119000
2020-08-05 19:00 12.49 75400 129000 (2019) 47400 (2017) 77500 49900 53500 70200 105000 119000
2020-08-05 18:00 12.45 75100 129000 (2019) 47400 (2017) 77500 49900 53500 70200 105000 119000
2020-08-05 17:00 12.42 74900 129000 (2019) 47400 (2017) 77500 49900 53500 70200 105000 119000
2020-08-05 16:00 12.39 74700 129000 (2019) 47400 (2017) 77500 49900 53500 70200 105000 119000
2020-08-05 15:00 12.35 74400 129000 (2019) 47400 (2017) 77500 49900 53500 70200 105000 119000
2020-08-05 14:00 12.33 74200 129000 (2019) 47400 (2017) 77500 49900 53500 70200 105000 119000
2020-08-05 13:00 12.32 74100 129000 (2019) 47400 (2017) 77500 49900 53500 70200 105000 119000
2020-08-05 12:00 12.29 73900 129000 (2019) 47400 (2017) 77500 49900 53500 70200 105000 119000
2020-08-05 11:00 12.27 73800 129000 (2019) 47400 (2017) 77500 49900 53500 70200 105000 119000
2020-08-05 10:00 12.25 73600 129000 (2019) 47400 (2017) 77500 49900 53500 70200 105000 119000
2020-08-05 09:00 12.22 73400 129000 (2019) 47400 (2017) 77500 49900 53500 70200 105000 119000
2020-08-05 08:00 12.23 73500 129000 (2019) 47400 (2017) 77500 49900 53500 70200 105000 119000
2020-08-05 07:00 12.20 73200 129000 (2019) 47400 (2017) 77500 49900 53500 70200 105000 119000
2020-08-05 06:00 12.21 73300 129000 (2019) 47400 (2017) 77500 49900 53500 70200 105000 119000
2020-08-05 05:00 12.23 73500 129000 (2019) 47400 (2017) 77500 49900 53500 70200 105000 119000
2020-08-05 04:00 12.25 73600 129000 (2019) 47400 (2017) 77500 49900 53500 70200 105000 119000
2020-08-05 03:00 12.24 73500 129000 (2019) 47400 (2017) 77500 49900 53500 70200 105000 119000
2020-08-05 02:00 12.25 73600 129000 (2019) 47400 (2017) 77500 49900 53500 70200 105000 119000
2020-08-05 01:00 12.25 73600 129000 (2019) 47400 (2017) 77500 49900 53500 70200 105000 119000
2020-08-05 00:00 12.28 73800 129000 (2019) 47400 (2017) 77500 49900 53500 70200 105000 119000
2020-08-04 23:00 12.28 73800 131000 (2019) 46800 (2017) 77100 48200 50300 71600 107000 121000
2020-08-04 22:00 12.29 73900 131000 (2019) 46800 (2017) 77100 48200 50300 71600 107000 121000
2020-08-04 21:00 12.31 74100 131000 (2019) 46800 (2017) 77100 48200 50300 71600 107000 121000
2020-08-04 20:00 12.33 74200 131000 (2019) 46800 (2017) 77100 48200 50300 71600 107000 121000
2020-08-04 19:00 12.35 74400 131000 (2019) 46800 (2017) 77100 48200 50300 71600 107000 121000
2020-08-04 18:00 12.37 74500 131000 (2019) 46800 (2017) 77100 48200 50300 71600 107000 121000
2020-08-04 17:00 12.41 74800 131000 (2019) 46800 (2017) 77100 48200 50300 71600 107000 121000
2020-08-04 16:00 12.42 74900 131000 (2019) 46800 (2017) 77100 48200 50300 71600 107000 121000
2020-08-04 15:00 12.46 75200 131000 (2019) 46800 (2017) 77100 48200 50300 71600 107000 121000
2020-08-04 14:00 12.50 75500 131000 (2019) 46800 (2017) 77100 48200 50300 71600 107000 121000
2020-08-04 13:00 12.53 75700 131000 (2019) 46800 (2017) 77100 48200 50300 71600 107000 121000
2020-08-04 12:00 12.55 75900 131000 (2019) 46800 (2017) 77100 48200 50300 71600 107000 121000
2020-08-04 11:00 12.59 76200 131000 (2019) 46800 (2017) 77100 48200 50300 71600 107000 121000
2020-08-04 10:00 12.61 76300 131000 (2019) 46800 (2017) 77100 48200 50300 71600 107000 121000
2020-08-04 09:00 12.65 76600 131000 (2019) 46800 (2017) 77100 48200 50300 71600 107000 121000
2020-08-04 08:00 12.70 77000 131000 (2019) 46800 (2017) 77100 48200 50300 71600 107000 121000
2020-08-04 07:00 12.73 77200 131000 (2019) 46800 (2017) 77100 48200 50300 71600 107000 121000
2020-08-04 06:00 12.76 77500 131000 (2019) 46800 (2017) 77100 48200 50300 71600 107000 121000
2020-08-04 05:00 12.80 77800 131000 (2019) 46800 (2017) 77100 48200 50300 71600 107000 121000
2020-08-04 04:00 12.85 78200 131000 (2019) 46800 (2017) 77100 48200 50300 71600 107000 121000
2020-08-04 03:00 12.88 78400 131000 (2019) 46800 (2017) 77100 48200 50300 71600 107000 121000
2020-08-04 02:00 12.93 78800 131000 (2019) 46800 (2017) 77100 48200 50300 71600 107000 121000
2020-08-04 01:00 12.98 79200 131000 (2019) 46800 (2017) 77100 48200 50300 71600 107000 121000
2020-08-04 00:00 13.02 79500 131000 (2019) 46800 (2017) 77100 48200 50300 71600 107000 121000
2020-08-03 23:00 13.06 79800 140000 (2019) 47600 (2017) 79600 48000 48700 76400 112000 129000
2020-08-03 22:00 13.04 79700 140000 (2019) 47600 (2017) 79600 48000 48700 76400 112000 129000
2020-08-03 21:00 13.16 80600 140000 (2019) 47600 (2017) 79600 48000 48700 76400 112000 129000
2020-08-03 20:00 13.22 81100 140000 (2019) 47600 (2017) 79600 48000 48700 76400 112000 129000
2020-08-03 19:00 13.28 81600 140000 (2019) 47600 (2017) 79600 48000 48700 76400 112000 129000
2020-08-03 18:00 13.32 81900 140000 (2019) 47600 (2017) 79600 48000 48700 76400 112000 129000
2020-08-03 17:00 13.40 82500 140000 (2019) 47600 (2017) 79600 48000 48700 76400 112000 129000
2020-08-03 16:00 13.46 83000 140000 (2019) 47600 (2017) 79600 48000 48700 76400 112000 129000
2020-08-03 15:00 13.52 83500 140000 (2019) 47600 (2017) 79600 48000 48700 76400 112000 129000
2020-08-03 14:00 13.60 84100 140000 (2019) 47600 (2017) 79600 48000 48700 76400 112000 129000
2020-08-03 13:00 13.68 84800 140000 (2019) 47600 (2017) 79600 48000 48700 76400 112000 129000
2020-08-03 12:00 13.75 85400 140000 (2019) 47600 (2017) 79600 48000 48700 76400 112000 129000
2020-08-03 11:00 13.82 86000 140000 (2019) 47600 (2017) 79600 48000 48700 76400 112000 129000
2020-08-03 10:00 13.90 86600 140000 (2019) 47600 (2017) 79600 48000 48700 76400 112000 129000
2020-08-03 09:00 13.98 87300 140000 (2019) 47600 (2017) 79600 48000 48700 76400 112000 129000
2020-08-03 08:00 14.05 87900 140000 (2019) 47600 (2017) 79600 48000 48700 76400 112000 129000
2020-08-03 07:00 14.15 88700 140000 (2019) 47600 (2017) 79600 48000 48700 76400 112000 129000
2020-08-03 06:00 14.21 89200 140000 (2019) 47600 (2017) 79600 48000 48700 76400 112000 129000
2020-08-03 05:00 14.31 90100 140000 (2019) 47600 (2017) 79600 48000 48700 76400 112000 129000
2020-08-03 04:00 14.41 90900 140000 (2019) 47600 (2017) 79600 48000 48700 76400 112000 129000
2020-08-03 03:00 14.49 91600 140000 (2019) 47600 (2017) 79600 48000 48700 76400 112000 129000
2020-08-03 02:00 14.58 92400 140000 (2019) 47600 (2017) 79600 48000 48700 76400 112000 129000
2020-08-03 01:00 14.65 93000 140000 (2019) 47600 (2017) 79600 48000 48700 76400 112000 129000
2020-08-03 00:00 14.75 93900 140000 (2019) 47600 (2017) 79600 48000 48700 76400 112000 129000
2020-08-02 23:00 14.85 94800 151000 (2019) 48200 (2017) 83500 48800 49700 81300 118000 138000
2020-08-02 22:00 14.93 95500 151000 (2019) 48200 (2017) 83500 48800 49700 81300 118000 138000
2020-08-02 21:00 15.02 96300 151000 (2019) 48200 (2017) 83500 48800 49700 81300 118000 138000
2020-08-02 20:00 15.13 97300 151000 (2019) 48200 (2017) 83500 48800 49700 81300 118000 138000
2020-08-02 19:00 15.23 98200 151000 (2019) 48200 (2017) 83500 48800 49700 81300 118000 138000
2020-08-02 18:00 15.32 99000 151000 (2019) 48200 (2017) 83500 48800 49700 81300 118000 138000
2020-08-02 17:00 15.38 99600 151000 (2019) 48200 (2017) 83500 48800 49700 81300 118000 138000
2020-08-02 16:00 15.49 101000 151000 (2019) 48200 (2017) 83500 48800 49700 81300 118000 138000
2020-08-02 15:00 15.56 101000 151000 (2019) 48200 (2017) 83500 48800 49700 81300 118000 138000
2020-08-02 14:00 15.65 102000 151000 (2019) 48200 (2017) 83500 48800 49700 81300 118000 138000
2020-08-02 13:00 15.74 103000 151000 (2019) 48200 (2017) 83500 48800 49700 81300 118000 138000
2020-08-02 12:00 15.83 104000 151000 (2019) 48200 (2017) 83500 48800 49700 81300 118000 138000
2020-08-02 11:00 15.91 105000 151000 (2019) 48200 (2017) 83500 48800 49700 81300 118000 138000
2020-08-02 10:00 16.02 106000 151000 (2019) 48200 (2017) 83500 48800 49700 81300 118000 138000
2020-08-02 09:00 16.11 106000 151000 (2019) 48200 (2017) 83500 48800 49700 81300 118000 138000
2020-08-02 08:00 16.21 107000 151000 (2019) 48200 (2017) 83500 48800 49700 81300 118000 138000
2020-08-02 07:00 16.31 108000 151000 (2019) 48200 (2017) 83500 48800 49700 81300 118000 138000
2020-08-02 06:00 16.37 109000 151000 (2019) 48200 (2017) 83500 48800 49700 81300 118000 138000
2020-08-02 05:00 16.48 110000 151000 (2019) 48200 (2017) 83500 48800 49700 81300 118000 138000
2020-08-02 04:00 16.56 111000 151000 (2019) 48200 (2017) 83500 48800 49700 81300 118000 138000
2020-08-02 03:00 16.68 112000 151000 (2019) 48200 (2017) 83500 48800 49700 81300 118000 138000
2020-08-02 02:00 16.78 113000 151000 (2019) 48200 (2017) 83500 48800 49700 81300 118000 138000
2020-08-02 01:00 16.92 114000 151000 (2019) 48200 (2017) 83500 48800 49700 81300 118000 138000
2020-08-02 00:00 17.02 115000 151000 (2019) 48200 (2017) 83500 48800 49700 81300 118000 138000
2020-08-01 23:00 17.12 116000 144000 (2019) 49900 (2017) 84600 50500 51400 87000 117000 133000
2020-08-01 22:00 17.28 118000 144000 (2019) 49900 (2017) 84600 50500 51400 87000 117000 133000
2020-08-01 21:00 17.43 120000 144000 (2019) 49900 (2017) 84600 50500 51400 87000 117000 133000
2020-08-01 20:00 17.57 121000 144000 (2019) 49900 (2017) 84600 50500 51400 87000 117000 133000
2020-08-01 19:00 17.73 123000 144000 (2019) 49900 (2017) 84600 50500 51400 87000 117000 133000
2020-08-01 18:00 17.89 124000 144000 (2019) 49900 (2017) 84600 50500 51400 87000 117000 133000
2020-08-01 17:00 18.07 126000 144000 (2019) 49900 (2017) 84600 50500 51400 87000 117000 133000
2020-08-01 16:00 18.25 128000 144000 (2019) 49900 (2017) 84600 50500 51400 87000 117000 133000
2020-08-01 15:00 18.46 131000 144000 (2019) 49900 (2017) 84600 50500 51400 87000 117000 133000
2020-08-01 14:00 18.65 133000 144000 (2019) 49900 (2017) 84600 50500 51400 87000 117000 133000
2020-08-01 13:00 18.85 135000 144000 (2019) 49900 (2017) 84600 50500 51400 87000 117000 133000
2020-08-01 12:00 19.06 137000 144000 (2019) 49900 (2017) 84600 50500 51400 87000 117000 133000
2020-08-01 11:00 19.30 140000 144000 (2019) 49900 (2017) 84600 50500 51400 87000 117000 133000
2020-08-01 10:00 19.47 142000 144000 (2019) 49900 (2017) 84600 50500 51400 87000 117000 133000
2020-08-01 09:00 19.72 145000 144000 (2019) 49900 (2017) 84600 50500 51400 87000 117000 133000
2020-08-01 08:00 19.94 148000 144000 (2019) 49900 (2017) 84600 50500 51400 87000 117000 133000
2020-08-01 07:00 20.16 150000 144000 (2019) 49900 (2017) 84600 50500 51400 87000 117000 133000
2020-08-01 06:00 20.35 153000 144000 (2019) 49900 (2017) 84600 50500 51400 87000 117000 133000
2020-08-01 05:00 20.55 155000 144000 (2019) 49900 (2017) 84600 50500 51400 87000 117000 133000
2020-08-01 04:00 20.75 158000 144000 (2019) 49900 (2017) 84600 50500 51400 87000 117000 133000
2020-08-01 03:00 20.94 160000 144000 (2019) 49900 (2017) 84600 50500 51400 87000 117000 133000
2020-08-01 02:00 21.08 162000 144000 (2019) 49900 (2017) 84600 50500 51400 87000 117000 133000
2020-08-01 01:00 21.29 165000 144000 (2019) 49900 (2017) 84600 50500 51400 87000 117000 133000
2020-08-01 00:00 21.43 167000 144000 (2019) 49900 (2017) 84600 50500 51400 87000 117000 133000
2020-07-31 23:00 21.59 169000 147000 (2019) 51700 (2016) 88400 51900 52100 88700 124000 138000
2020-07-31 22:00 21.70 170000 147000 (2019) 51700 (2016) 88400 51900 52100 88700 124000 138000
2020-07-31 21:00 21.83 172000 147000 (2019) 51700 (2016) 88400 51900 52100 88700 124000 138000
2020-07-31 20:00 21.89 173000 147000 (2019) 51700 (2016) 88400 51900 52100 88700 124000 138000
2020-07-31 19:00 21.97 174000 147000 (2019) 51700 (2016) 88400 51900 52100 88700 124000 138000
2020-07-31 18:00 21.99 174000 147000 (2019) 51700 (2016) 88400 51900 52100 88700 124000 138000
2020-07-31 17:00 22.03 174000 147000 (2019) 51700 (2016) 88400 51900 52100 88700 124000 138000
2020-07-31 16:00 22.02 174000 147000 (2019) 51700 (2016) 88400 51900 52100 88700 124000 138000
2020-07-31 15:00 21.97 174000 147000 (2019) 51700 (2016) 88400 51900 52100 88700 124000 138000
2020-07-31 14:00 21.88 172000 147000 (2019) 51700 (2016) 88400 51900 52100 88700 124000 138000
2020-07-31 13:00 21.76 171000 147000 (2019) 51700 (2016) 88400 51900 52100 88700 124000 138000
2020-07-31 12:00 21.55 168000 147000 (2019) 51700 (2016) 88400 51900 52100 88700 124000 138000
2020-07-31 11:00 21.34 165000 147000 (2019) 51700 (2016) 88400 51900 52100 88700 124000 138000
2020-07-31 10:00 21.06 162000 147000 (2019) 51700 (2016) 88400 51900 52100 88700 124000 138000
2020-07-31 09:00 20.76 158000 147000 (2019) 51700 (2016) 88400 51900 52100 88700 124000 138000
2020-07-31 08:00 20.38 153000 147000 (2019) 51700 (2016) 88400 51900 52100 88700 124000 138000
2020-07-31 07:00 19.94 148000 147000 (2019) 51700 (2016) 88400 51900 52100 88700 124000 138000
2020-07-31 06:00 19.47 142000 147000 (2019) 51700 (2016) 88400 51900 52100 88700 124000 138000
2020-07-31 05:00 19.03 137000 147000 (2019) 51700 (2016) 88400 51900 52100 88700 124000 138000
2020-07-31 04:00 18.60 132000 147000 (2019) 51700 (2016) 88400 51900 52100 88700 124000 138000
2020-07-31 03:00 18.17 128000 147000 (2019) 51700 (2016) 88400 51900 52100 88700 124000 138000
2020-07-31 02:00 17.82 124000 147000 (2019) 51700 (2016) 88400 51900 52100 88700 124000 138000
2020-07-31 01:00 17.52 121000 147000 (2019) 51700 (2016) 88400 51900 52100 88700 124000 138000
2020-07-31 00:00 17.26 118000 147000 (2019) 51700 (2016) 88400 51900 52100 88700 124000 138000
2020-07-30 23:00 16.98 115000 151000 (2019) 51600 (2016) 87600 52300 53200 89100 121000 139000
2020-07-30 22:00 16.81 113000 151000 (2019) 51600 (2016) 87600 52300 53200 89100 121000 139000
2020-07-30 21:00 16.65 112000 151000 (2019) 51600 (2016) 87600 52300 53200 89100 121000 139000
2020-07-30 20:00 16.49 110000 151000 (2019) 51600 (2016) 87600 52300 53200 89100 121000 139000
2020-07-30 19:00 16.37 109000 151000 (2019) 51600 (2016) 87600 52300 53200 89100 121000 139000
2020-07-30 18:00 16.19 107000 151000 (2019) 51600 (2016) 87600 52300 53200 89100 121000 139000
2020-07-30 17:00 16.01 105000 151000 (2019) 51600 (2016) 87600 52300 53200 89100 121000 139000
2020-07-30 16:00 15.85 104000 151000 (2019) 51600 (2016) 87600 52300 53200 89100 121000 139000
2020-07-30 15:00 15.72 103000 151000 (2019) 51600 (2016) 87600 52300 53200 89100 121000 139000
2020-07-30 14:00 15.54 101000 151000 (2019) 51600 (2016) 87600 52300 53200 89100 121000 139000
2020-07-30 13:00 15.42 99900 151000 (2019) 51600 (2016) 87600 52300 53200 89100 121000 139000
2020-07-30 12:00 15.26 98500 151000 (2019) 51600 (2016) 87600 52300 53200 89100 121000 139000
2020-07-30 11:00 15.11 97100 151000 (2019) 51600 (2016) 87600 52300 53200 89100 121000 139000
2020-07-30 10:00 14.95 95700 151000 (2019) 51600 (2016) 87600 52300 53200 89100 121000 139000
2020-07-30 09:00 14.78 94200 151000 (2019) 51600 (2016) 87600 52300 53200 89100 121000 139000
2020-07-30 08:00 14.64 92900 151000 (2019) 51600 (2016) 87600 52300 53200 89100 121000 139000
2020-07-30 07:00 14.50 91700 151000 (2019) 51600 (2016) 87600 52300 53200 89100 121000 139000
2020-07-30 06:00 14.35 90400 151000 (2019) 51600 (2016) 87600 52300 53200 89100 121000 139000
2020-07-30 05:00 14.19 89100 151000 (2019) 51600 (2016) 87600 52300 53200 89100 121000 139000
2020-07-30 04:00 14.10 88300 151000 (2019) 51600 (2016) 87600 52300 53200 89100 121000 139000
2020-07-30 03:00 13.98 87300 151000 (2019) 51600 (2016) 87600 52300 53200 89100 121000 139000
2020-07-30 02:00 13.90 86600 151000 (2019) 51600 (2016) 87600 52300 53200 89100 121000 139000
2020-07-30 01:00 13.82 86000 151000 (2019) 51600 (2016) 87600 52300 53200 89100 121000 139000
2020-07-30 00:00 13.74 85300 151000 (2019) 51600 (2016) 87600 52300 53200 89100 121000 139000
2020-07-29 23:00 13.67 84700 158000 (2019) 52600 (2016) 87500 53700 55300 75900 125000 145000
2020-07-29 22:00 13.61 84200 158000 (2019) 52600 (2016) 87500 53700 55300 75900 125000 145000
2020-07-29 21:00 13.58 84000 158000 (2019) 52600 (2016) 87500 53700 55300 75900 125000 145000
2020-07-29 20:00 13.54 83700 158000 (2019) 52600 (2016) 87500 53700 55300 75900 125000 145000
2020-07-29 19:00 13.52 83500 158000 (2019) 52600 (2016) 87500 53700 55300 75900 125000 145000
2020-07-29 18:00 13.50 83300 158000 (2019) 52600 (2016) 87500 53700 55300 75900 125000 145000
2020-07-29 17:00 13.50 83300 158000 (2019) 52600 (2016) 87500 53700 55300 75900 125000 145000
2020-07-29 16:00 13.50 83300 158000 (2019) 52600 (2016) 87500 53700 55300 75900 125000 145000
2020-07-29 15:00 13.53 83600 158000 (2019) 52600 (2016) 87500 53700 55300 75900 125000 145000
2020-07-29 14:00 13.55 83700 158000 (2019) 52600 (2016) 87500 53700 55300 75900 125000 145000
2020-07-29 13:00 13.57 83900 158000 (2019) 52600 (2016) 87500 53700 55300 75900 125000 145000
2020-07-29 12:00 13.60 84100 158000 (2019) 52600 (2016) 87500 53700 55300 75900 125000 145000
2020-07-29 11:00 13.63 84400 158000 (2019) 52600 (2016) 87500 53700 55300 75900 125000 145000
2020-07-29 10:00 13.64 84500 158000 (2019) 52600 (2016) 87500 53700 55300 75900 125000 145000
2020-07-29 09:00 13.68 84800 158000 (2019) 52600 (2016) 87500 53700 55300 75900 125000 145000
2020-07-29 08:00 13.70 85000 158000 (2019) 52600 (2016) 87500 53700 55300 75900 125000 145000
2020-07-29 07:00 13.71 85000 158000 (2019) 52600 (2016) 87500 53700 55300 75900 125000 145000
2020-07-29 06:00 13.71 85000 158000 (2019) 52600 (2016) 87500 53700 55300 75900 125000 145000
2020-07-29 05:00 13.70 85000 158000 (2019) 52600 (2016) 87500 53700 55300 75900 125000 145000
2020-07-29 04:00 13.71 85000 158000 (2019) 52600 (2016) 87500 53700 55300 75900 125000 145000
2020-07-29 03:00 13.70 85000 158000 (2019) 52600 (2016) 87500 53700 55300 75900 125000 145000
2020-07-29 02:00 13.70 85000 158000 (2019) 52600 (2016) 87500 53700 55300 75900 125000 145000
2020-07-29 01:00 13.70 85000 158000 (2019) 52600 (2016) 87500 53700 55300 75900 125000 145000
2020-07-29 00:00 13.66 84600 158000 (2019) 52600 (2016) 87500 53700 55300 75900 125000 145000
2020-07-28 23:00 13.64 84500 166000 (2019) 53500 (2016) 94300 57900 64400 83600 130000 151000
2020-07-28 22:00 13.61 84200 166000 (2019) 53500 (2016) 94300 57900 64400 83600 130000 151000
2020-07-28 21:00 13.57 83900 166000 (2019) 53500 (2016) 94300 57900 64400 83600 130000 151000
2020-07-28 20:00 13.53 83600 166000 (2019) 53500 (2016) 94300 57900 64400 83600 130000 151000
2020-07-28 19:00 13.49 83300 166000 (2019) 53500 (2016) 94300 57900 64400 83600 130000 151000
2020-07-28 18:00 13.44 82800 166000 (2019) 53500 (2016) 94300 57900 64400 83600 130000 151000
2020-07-28 17:00 13.38 82400 166000 (2019) 53500 (2016) 94300 57900 64400 83600 130000 151000
2020-07-28 16:00 13.30 81700 166000 (2019) 53500 (2016) 94300 57900 64400 83600 130000 151000
2020-07-28 15:00 13.24 81200 166000 (2019) 53500 (2016) 94300 57900 64400 83600 130000 151000
2020-07-28 14:00 13.16 80600 166000 (2019) 53500 (2016) 94300 57900 64400 83600 130000 151000
2020-07-28 13:00 13.08 80000 166000 (2019) 53500 (2016) 94300 57900 64400 83600 130000 151000
2020-07-28 12:00 12.99 79300 166000 (2019) 53500 (2016) 94300 57900 64400 83600 130000 151000
2020-07-28 11:00 12.92 78700 166000 (2019) 53500 (2016) 94300 57900 64400 83600 130000 151000
2020-07-28 10:00 12.85 78200 166000 (2019) 53500 (2016) 94300 57900 64400 83600 130000 151000
2020-07-28 09:00 12.77 77600 166000 (2019) 53500 (2016) 94300 57900 64400 83600 130000 151000
2020-07-28 08:00 12.73 77200 166000 (2019) 53500 (2016) 94300 57900 64400 83600 130000 151000
2020-07-28 07:00 12.66 76700 166000 (2019) 53500 (2016) 94300 57900 64400 83600 130000 151000
2020-07-28 06:00 12.61 76300 166000 (2019) 53500 (2016) 94300 57900 64400 83600 130000 151000
2020-07-28 05:00 12.57 76000 166000 (2019) 53500 (2016) 94300 57900 64400 83600 130000 151000
2020-07-28 04:00 12.56 75900 166000 (2019) 53500 (2016) 94300 57900 64400 83600 130000 151000
2020-07-28 03:00 12.55 75900 166000 (2019) 53500 (2016) 94300 57900 64400 83600 130000 151000
2020-07-28 02:00 12.56 75900 166000 (2019) 53500 (2016) 94300 57900 64400 83600 130000 151000
2020-07-28 01:00 12.58 76100 166000 (2019) 53500 (2016) 94300 57900 64400 83600 130000 151000
2020-07-28 00:00 12.60 76200 166000 (2019) 53500 (2016) 94300 57900 64400 83600 130000 151000
2020-07-27 23:00 12.66 76700 168000 (2019) 54800 (2016) 97400 59200 65800 93000 131000 153000
2020-07-27 22:00 12.71 77100 168000 (2019) 54800 (2016) 97400 59200 65800 93000 131000 153000
2020-07-27 21:00 12.80 77800 168000 (2019) 54800 (2016) 97400 59200 65800 93000 131000 153000
2020-07-27 20:00 12.91 78600 168000 (2019) 54800 (2016) 97400 59200 65800 93000 131000 153000
2020-07-27 19:00 12.99 79300 168000 (2019) 54800 (2016) 97400 59200 65800 93000 131000 153000
2020-07-27 18:00 13.09 80100 168000 (2019) 54800 (2016) 97400 59200 65800 93000 131000 153000
2020-07-27 17:00 13.19 80800 168000 (2019) 54800 (2016) 97400 59200 65800 93000 131000 153000
2020-07-27 16:00 13.28 81600 168000 (2019) 54800 (2016) 97400 59200 65800 93000 131000 153000
2020-07-27 15:00 13.36 82200 168000 (2019) 54800 (2016) 97400 59200 65800 93000 131000 153000
2020-07-27 14:00 13.42 82700 168000 (2019) 54800 (2016) 97400 59200 65800 93000 131000 153000
2020-07-27 13:00 13.46 83000 168000 (2019) 54800 (2016) 97400 59200 65800 93000 131000 153000
2020-07-27 12:00 13.45 82900 168000 (2019) 54800 (2016) 97400 59200 65800 93000 131000 153000
2020-07-27 11:00 13.39 82400 168000 (2019) 54800 (2016) 97400 59200 65800 93000 131000 153000
2020-07-27 10:00 13.30 81700 168000 (2019) 54800 (2016) 97400 59200 65800 93000 131000 153000
2020-07-27 09:00 13.13 80400 168000 (2019) 54800 (2016) 97400 59200 65800 93000 131000 153000
2020-07-27 08:00 12.91 78600 168000 (2019) 54800 (2016) 97400 59200 65800 93000 131000 153000
2020-07-27 07:00 12.65 76600 168000 (2019) 54800 (2016) 97400 59200 65800 93000 131000 153000
2020-07-27 06:00 12.34 74300 168000 (2019) 54800 (2016) 97400 59200 65800 93000 131000 153000
2020-07-27 05:00 12.04 72100 168000 (2019) 54800 (2016) 97400 59200 65800 93000 131000 153000
2020-07-27 04:00 11.76 70000 168000 (2019) 54800 (2016) 97400 59200 65800 93000 131000 153000
2020-07-27 03:00 11.65 69200 168000 (2019) 54800 (2016) 97400 59200 65800 93000 131000 153000
2020-07-27 02:00 11.60 68900 168000 (2019) 54800 (2016) 97400 59200 65800 93000 131000 153000
2020-07-27 01:00 11.58 68700 168000 (2019) 54800 (2016) 97400 59200 65800 93000 131000 153000
2020-07-27 00:00 11.55 68500 168000 (2019) 54800 (2016) 97400 59200 65800 93000 131000 153000
2020-07-26 23:00 11.57 68700 167000 (2019) 48400 (2017) 87700 50100 52700 70500 131000 153000
2020-07-26 22:00 11.56 68600 167000 (2019) 48400 (2017) 87700 50100 52700 70500 131000 153000
2020-07-26 21:00 11.55 68500 167000 (2019) 48400 (2017) 87700 50100 52700 70500 131000 153000
2020-07-26 20:00 11.57 68700 167000 (2019) 48400 (2017) 87700 50100 52700 70500 131000 153000
2020-07-26 19:00 11.59 68800 167000 (2019) 48400 (2017) 87700 50100 52700 70500 131000 153000
2020-07-26 18:00 11.58 68700 167000 (2019) 48400 (2017) 87700 50100 52700 70500 131000 153000
2020-07-26 17:00 11.58 68700 167000 (2019) 48400 (2017) 87700 50100 52700 70500 131000 153000
2020-07-26 16:00 11.59 68800 167000 (2019) 48400 (2017) 87700 50100 52700 70500 131000 153000
2020-07-26 15:00 11.61 68900 167000 (2019) 48400 (2017) 87700 50100 52700 70500 131000 153000
2020-07-26 14:00 11.60 68900 167000 (2019) 48400 (2017) 87700 50100 52700 70500 131000 153000
2020-07-26 13:00 11.64 69200 167000 (2019) 48400 (2017) 87700 50100 52700 70500 131000 153000
2020-07-26 12:00 11.63 69100 167000 (2019) 48400 (2017) 87700 50100 52700 70500 131000 153000
2020-07-26 11:00 11.65 69200 167000 (2019) 48400 (2017) 87700 50100 52700 70500 131000 153000
2020-07-26 10:00 11.64 69200 167000 (2019) 48400 (2017) 87700 50100 52700 70500 131000 153000
2020-07-26 09:00 11.66 69300 167000 (2019) 48400 (2017) 87700 50100 52700 70500 131000 153000
2020-07-26 08:00 11.68 69400 167000 (2019) 48400 (2017) 87700 50100 52700 70500 131000 153000
2020-07-26 07:00 11.66 69300 167000 (2019) 48400 (2017) 87700 50100 52700 70500 131000 153000
2020-07-26 06:00 11.67 69400 167000 (2019) 48400 (2017) 87700 50100 52700 70500 131000 153000
2020-07-26 05:00 11.70 69600 167000 (2019) 48400 (2017) 87700 50100 52700 70500 131000 153000
2020-07-26 04:00 11.69 69500 167000 (2019) 48400 (2017) 87700 50100 52700 70500 131000 153000
2020-07-26 03:00 11.72 69700 167000 (2019) 48400 (2017) 87700 50100 52700 70500 131000 153000
2020-07-26 02:00 11.72 69700 167000 (2019) 48400 (2017) 87700 50100 52700 70500 131000 153000
2020-07-26 01:00 11.73 69800 167000 (2019) 48400 (2017) 87700 50100 52700 70500 131000 153000
2020-07-26 00:00 11.73 69800 167000 (2019) 48400 (2017) 87700 50100 52700 70500 131000 153000
2020-07-25 23:00 11.75 69900 167000 (2019) 48800 (2017) 88700 51000 54300 71300 132000 153000
2020-07-25 22:00 11.76 70000 167000 (2019) 48800 (2017) 88700 51000 54300 71300 132000 153000
2020-07-25 21:00 11.75 69900 167000 (2019) 48800 (2017) 88700 51000 54300 71300 132000 153000
2020-07-25 20:00 11.77 70100 167000 (2019) 48800 (2017) 88700 51000 54300 71300 132000 153000
2020-07-25 19:00 11.77 70100 167000 (2019) 48800 (2017) 88700 51000 54300 71300 132000 153000
2020-07-25 18:00 11.77 70100 167000 (2019) 48800 (2017) 88700 51000 54300 71300 132000 153000
2020-07-25 17:00 11.79 70200 167000 (2019) 48800 (2017) 88700 51000 54300 71300 132000 153000
2020-07-25 16:00 11.80 70300 167000 (2019) 48800 (2017) 88700 51000 54300 71300 132000 153000
2020-07-25 15:00 11.80 70300 167000 (2019) 48800 (2017) 88700 51000 54300 71300 132000 153000
2020-07-25 14:00 11.79 70200 167000 (2019) 48800 (2017) 88700 51000 54300 71300 132000 153000
2020-07-25 13:00 11.80 70300 167000 (2019) 48800 (2017) 88700 51000 54300 71300 132000 153000
2020-07-25 12:00 11.82 70500 167000 (2019) 48800 (2017) 88700 51000 54300 71300 132000 153000
2020-07-25 11:00 11.83 70500 167000 (2019) 48800 (2017) 88700 51000 54300 71300 132000 153000
2020-07-25 10:00 11.83 70500 167000 (2019) 48800 (2017) 88700 51000 54300 71300 132000 153000
2020-07-25 09:00 11.81 70400 167000 (2019) 48800 (2017) 88700 51000 54300 71300 132000 153000
2020-07-25 08:00 11.83 70500 167000 (2019) 48800 (2017) 88700 51000 54300 71300 132000 153000
2020-07-25 07:00 11.84 70600 167000 (2019) 48800 (2017) 88700 51000 54300 71300 132000 153000
2020-07-25 06:00 11.83 70500 167000 (2019) 48800 (2017) 88700 51000 54300 71300 132000 153000
2020-07-25 05:00 11.86 70700 167000 (2019) 48800 (2017) 88700 51000 54300 71300 132000 153000
2020-07-25 04:00 11.85 70700 167000 (2019) 48800 (2017) 88700 51000 54300 71300 132000 153000
2020-07-25 03:00 11.87 70800 167000 (2019) 48800 (2017) 88700 51000 54300 71300 132000 153000
2020-07-25 02:00 11.87 70800 167000 (2019) 48800 (2017) 88700 51000 54300 71300 132000 153000
2020-07-25 01:00 11.87 70800 167000 (2019) 48800 (2017) 88700 51000 54300 71300 132000 153000
2020-07-25 00:00 11.90 71000 167000 (2019) 48800 (2017) 88700 51000 54300 71300 132000 153000
2020-07-24 23:00 11.92 71200 170000 (2019) 51000 (2017) 91700 53400 56900 75600 135000 156000
2020-07-24 22:00 11.92 71200 170000 (2019) 51000 (2017) 91700 53400 56900 75600 135000 156000
2020-07-24 21:00 11.95 71400 170000 (2019) 51000 (2017) 91700 53400 56900 75600 135000 156000
2020-07-24 20:00 11.96 71500 170000 (2019) 51000 (2017) 91700 53400 56900 75600 135000 156000
2020-07-24 19:00 11.97 71500 170000 (2019) 51000 (2017) 91700 53400 56900 75600 135000 156000
2020-07-24 18:00 12.01 71800 170000 (2019) 51000 (2017) 91700 53400 56900 75600 135000 156000
2020-07-24 17:00 12.02 71900 170000 (2019) 51000 (2017) 91700 53400 56900 75600 135000 156000
2020-07-24 16:00 12.05 72100 170000 (2019) 51000 (2017) 91700 53400 56900 75600 135000 156000
2020-07-24 15:00 12.08 72300 170000 (2019) 51000 (2017) 91700 53400 56900 75600 135000 156000
2020-07-24 14:00 12.12 72600 170000 (2019) 51000 (2017) 91700 53400 56900 75600 135000 156000
2020-07-24 13:00 12.13 72700 170000 (2019) 51000 (2017) 91700 53400 56900 75600 135000 156000
2020-07-24 12:00 12.17 73000 170000 (2019) 51000 (2017) 91700 53400 56900 75600 135000 156000
2020-07-24 11:00 12.20 73200 170000 (2019) 51000 (2017) 91700 53400 56900 75600 135000 156000
2020-07-24 10:00 12.25 73600 170000 (2019) 51000 (2017) 91700 53400 56900 75600 135000 156000
2020-07-24 09:00 12.30 74000 170000 (2019) 51000 (2017) 91700 53400 56900 75600 135000 156000
2020-07-24 08:00 12.35 74400 170000 (2019) 51000 (2017) 91700 53400 56900 75600 135000 156000
2020-07-24 07:00 12.39 74700 170000 (2019) 51000 (2017) 91700 53400 56900 75600 135000 156000
2020-07-24 06:00 12.43 75000 170000 (2019) 51000 (2017) 91700 53400 56900 75600 135000 156000
2020-07-24 05:00 12.49 75400 170000 (2019) 51000 (2017) 91700 53400 56900 75600 135000 156000
2020-07-24 04:00 12.54 75800 170000 (2019) 51000 (2017) 91700 53400 56900 75600 135000 156000
2020-07-24 03:00 12.61 76300 170000 (2019) 51000 (2017) 91700 53400 56900 75600 135000 156000
2020-07-24 02:00 12.66 76700 170000 (2019) 51000 (2017) 91700 53400 56900 75600 135000 156000
2020-07-24 01:00 12.70 77000 170000 (2019) 51000 (2017) 91700 53400 56900 75600 135000 156000
2020-07-24 00:00 12.76 77500 170000 (2019) 51000 (2017) 91700 53400 56900 75600 135000 156000
2020-07-23 23:00 12.81 77900 177000 (2019) 55700 (2017) 97500 58500 62600 85400 139000 162000
2020-07-23 22:00 12.87 78300 177000 (2019) 55700 (2017) 97500 58500 62600 85400 139000 162000
2020-07-23 21:00 12.95 79000 177000 (2019) 55700 (2017) 97500 58500 62600 85400 139000 162000
2020-07-23 20:00 13.02 79500 177000 (2019) 55700 (2017) 97500 58500 62600 85400 139000 162000
2020-07-23 19:00 13.08 80000 177000 (2019) 55700 (2017) 97500 58500 62600 85400 139000 162000
2020-07-23 18:00 13.15 80500 177000 (2019) 55700 (2017) 97500 58500 62600 85400 139000 162000
2020-07-23 17:00 13.20 80900 177000 (2019) 55700 (2017) 97500 58500 62600 85400 139000 162000
2020-07-23 16:00 13.26 81400 177000 (2019) 55700 (2017) 97500 58500 62600 85400 139000 162000
2020-07-23 15:00 13.32 81900 177000 (2019) 55700 (2017) 97500 58500 62600 85400 139000 162000
2020-07-23 14:00 13.40 82500 177000 (2019) 55700 (2017) 97500 58500 62600 85400 139000 162000
2020-07-23 13:00 13.46 83000 177000 (2019) 55700 (2017) 97500 58500 62600 85400 139000 162000
2020-07-23 12:00 13.53 83600 177000 (2019) 55700 (2017) 97500 58500 62600 85400 139000 162000
2020-07-23 11:00 13.60 84100 177000 (2019) 55700 (2017) 97500 58500 62600 85400 139000 162000
2020-07-23 10:00 13.67 84700 177000 (2019) 55700 (2017) 97500 58500 62600 85400 139000 162000
2020-07-23 09:00 13.74 85300 177000 (2019) 55700 (2017) 97500 58500 62600 85400 139000 162000
2020-07-23 08:00 13.81 85900 177000 (2019) 55700 (2017) 97500 58500 62600 85400 139000 162000
2020-07-23 07:00 13.88 86500 177000 (2019) 55700 (2017) 97500 58500 62600 85400 139000 162000
2020-07-23 06:00 13.96 87100 177000 (2019) 55700 (2017) 97500 58500 62600 85400 139000 162000
2020-07-23 05:00 14.02 87600 177000 (2019) 55700 (2017) 97500 58500 62600 85400 139000 162000
2020-07-23 04:00 14.09 88200 177000 (2019) 55700 (2017) 97500 58500 62600 85400 139000 162000
2020-07-23 03:00 14.17 88900 177000 (2019) 55700 (2017) 97500 58500 62600 85400 139000 162000
2020-07-23 02:00 14.24 89500 177000 (2019) 55700 (2017) 97500 58500 62600 85400 139000 162000
2020-07-23 01:00 14.29 89900 177000 (2019) 55700 (2017) 97500 58500 62600 85400 139000 162000
2020-07-23 00:00 14.35 90400 177000 (2019) 55700 (2017) 97500 58500 62600 85400 139000 162000
2020-07-22 23:00 14.42 91000 180000 (2019) 53400 (2017) 102000 58200 65500 97500 141000 164000
2020-07-22 22:00 14.48 91600 180000 (2019) 53400 (2017) 102000 58200 65500 97500 141000 164000
2020-07-22 21:00 14.55 92200 180000 (2019) 53400 (2017) 102000 58200 65500 97500 141000 164000
2020-07-22 20:00 14.62 92800 180000 (2019) 53400 (2017) 102000 58200 65500 97500 141000 164000
2020-07-22 19:00 14.71 93600 180000 (2019) 53400 (2017) 102000 58200 65500 97500 141000 164000
2020-07-22 18:00 14.81 94400 180000 (2019) 53400 (2017) 102000 58200 65500 97500 141000 164000
2020-07-22 17:00 14.89 95100 180000 (2019) 53400 (2017) 102000 58200 65500 97500 141000 164000
2020-07-22 16:00 15.00 96100 180000 (2019) 53400 (2017) 102000 58200 65500 97500 141000 164000
2020-07-22 15:00 15.69 105000 180000 (2019) 53400 (2017) 102000 58200 65500 97500 141000 164000
2020-07-22 14:00 15.19 100000 180000 (2019) 53400 (2017) 102000 58200 65500 97500 141000 164000
2020-07-22 13:00 15.30 101000 180000 (2019) 53400 (2017) 102000 58200 65500 97500 141000 164000
2020-07-22 12:00 15.40 102000 180000 (2019) 53400 (2017) 102000 58200 65500 97500 141000 164000
2020-07-22 11:00 15.48 103000 180000 (2019) 53400 (2017) 102000 58200 65500 97500 141000 164000
2020-07-22 10:00 15.60 104000 180000 (2019) 53400 (2017) 102000 58200 65500 97500 141000 164000
2020-07-22 09:00 15.69 105000 180000 (2019) 53400 (2017) 102000 58200 65500 97500 141000 164000
2020-07-22 08:00 15.83 106000 180000 (2019) 53400 (2017) 102000 58200 65500 97500 141000 164000
2020-07-22 07:00 15.88 107000 180000 (2019) 53400 (2017) 102000 58200 65500 97500 141000 164000
2020-07-22 06:00 15.94 107000 180000 (2019) 53400 (2017) 102000 58200 65500 97500 141000 164000
2020-07-22 05:00 16.04 108000 180000 (2019) 53400 (2017) 102000 58200 65500 97500 141000 164000
2020-07-22 04:00 16.10 109000 180000 (2019) 53400 (2017) 102000 58200 65500 97500 141000 164000
2020-07-22 03:00 16.12 109000 180000 (2019) 53400 (2017) 102000 58200 65500 97500 141000 164000
2020-07-22 02:00 16.18 110000 180000 (2019) 53400 (2017) 102000 58200 65500 97500 141000 164000
2020-07-22 01:00 16.18 110000 180000 (2019) 53400 (2017) 102000 58200 65500 97500 141000 164000
2020-07-22 00:00 16.17 109000 180000 (2019) 53400 (2017) 102000 58200 65500 97500 141000 164000
2020-07-21 23:00 16.13 109000 177000 (2019) 52700 (2017) 108000 60500 72200 101000 147000 165000
2020-07-21 22:00 16.08 109000 177000 (2019) 52700 (2017) 108000 60500 72200 101000 147000 165000
2020-07-21 21:00 16.05 108000 177000 (2019) 52700 (2017) 108000 60500 72200 101000 147000 165000
2020-07-21 20:00 16.01 108000 177000 (2019) 52700 (2017) 108000 60500 72200 101000 147000 165000
2020-07-21 19:00 15.96 107000 177000 (2019) 52700 (2017) 108000 60500 72200 101000 147000 165000
2020-07-21 18:00 15.90 107000 177000 (2019) 52700 (2017) 108000 60500 72200 101000 147000 165000
2020-07-21 17:00 15.83 106000 177000 (2019) 52700 (2017) 108000 60500 72200 101000 147000 165000
2020-07-21 16:00 15.79 106000 177000 (2019) 52700 (2017) 108000 60500 72200 101000 147000 165000
2020-07-21 15:00 15.73 105000 177000 (2019) 52700 (2017) 108000 60500 72200 101000 147000 165000
2020-07-21 14:00 15.65 104000 177000 (2019) 52700 (2017) 108000 60500 72200 101000 147000 165000
2020-07-21 13:00 15.54 103000 177000 (2019) 52700 (2017) 108000 60500 72200 101000 147000 165000
2020-07-21 12:00 15.45 103000 177000 (2019) 52700 (2017) 108000 60500 72200 101000 147000 165000
2020-07-21 11:00 15.33 101000 177000 (2019) 52700 (2017) 108000 60500 72200 101000 147000 165000
2020-07-21 10:00 15.18 100000 177000 (2019) 52700 (2017) 108000 60500 72200 101000 147000 165000
2020-07-21 09:00 15.03 98700 177000 (2019) 52700 (2017) 108000 60500 72200 101000 147000 165000
2020-07-21 08:00 14.84 96900 177000 (2019) 52700 (2017) 108000 60500 72200 101000 147000 165000
2020-07-21 07:00 14.62 95000 177000 (2019) 52700 (2017) 108000 60500 72200 101000 147000 165000
2020-07-21 06:00 14.35 92600 177000 (2019) 52700 (2017) 108000 60500 72200 101000 147000 165000
2020-07-21 05:00 14.07 90200 177000 (2019) 52700 (2017) 108000 60500 72200 101000 147000 165000
2020-07-21 04:00 13.77 87600 177000 (2019) 52700 (2017) 108000 60500 72200 101000 147000 165000
2020-07-21 03:00 13.47 85100 177000 (2019) 52700 (2017) 108000 60500 72200 101000 147000 165000
2020-07-21 02:00 13.19 82800 177000 (2019) 52700 (2017) 108000 60500 72200 101000 147000 165000
2020-07-21 01:00 12.91 80600 177000 (2019) 52700 (2017) 108000 60500 72200 101000 147000 165000
2020-07-21 00:00 12.66 78600 177000 (2019) 52700 (2017) 108000 60500 72200 101000 147000 165000
2020-07-20 23:00 12.45 77000 167000 (2019) 52300 (2017) 103000 60600 73000 101000 135000 154000
2020-07-20 22:00 12.24 75400 167000 (2019) 52300 (2017) 103000 60600 73000 101000 135000 154000
2020-07-20 21:00 12.07 74100 167000 (2019) 52300 (2017) 103000 60600 73000 101000 135000 154000
2020-07-20 20:00 11.93 73100 167000 (2019) 52300 (2017) 103000 60600 73000 101000 135000 154000
2020-07-20 19:00 11.80 72100 167000 (2019) 52300 (2017) 103000 60600 73000 101000 135000 154000
2020-07-20 18:00 11.69 71300 167000 (2019) 52300 (2017) 103000 60600 73000 101000 135000 154000
2020-07-20 17:00 11.58 70500 167000 (2019) 52300 (2017) 103000 60600 73000 101000 135000 154000
2020-07-20 16:00 11.49 69900 167000 (2019) 52300 (2017) 103000 60600 73000 101000 135000 154000
2020-07-20 15:00 11.42 69400 167000 (2019) 52300 (2017) 103000 60600 73000 101000 135000 154000
2020-07-20 14:00 11.36 68900 167000 (2019) 52300 (2017) 103000 60600 73000 101000 135000 154000
2020-07-20 13:00 11.33 68700 167000 (2019) 52300 (2017) 103000 60600 73000 101000 135000 154000
2020-07-20 12:00 11.31 68600 167000 (2019) 52300 (2017) 103000 60600 73000 101000 135000 154000
2020-07-20 11:00 11.33 68700 167000 (2019) 52300 (2017) 103000 60600 73000 101000 135000 154000
2020-07-20 10:00 11.33 68700 167000 (2019) 52300 (2017) 103000 60600 73000 101000 135000 154000
2020-07-20 09:00 11.29 68400 167000 (2019) 52300 (2017) 103000 60600 73000 101000 135000 154000
2020-07-20 08:00 11.29 68400 167000 (2019) 52300 (2017) 103000 60600 73000 101000 135000 154000
2020-07-20 07:00 11.31 68600 167000 (2019) 52300 (2017) 103000 60600 73000 101000 135000 154000
2020-07-20 06:00 11.19 67700 167000 (2019) 52300 (2017) 103000 60600 73000 101000 135000 154000
2020-07-20 05:00 11.12 67300 167000 (2019) 52300 (2017) 103000 60600 73000 101000 135000 154000
2020-07-20 04:00 11.10 67100 167000 (2019) 52300 (2017) 103000 60600 73000 101000 135000 154000
2020-07-20 03:00 11.12 67300 167000 (2019) 52300 (2017) 103000 60600 73000 101000 135000 154000
2020-07-20 02:00 11.15 67500 167000 (2019) 52300 (2017) 103000 60600 73000 101000 135000 154000
2020-07-20 01:00 11.16 67500 167000 (2019) 52300 (2017) 103000 60600 73000 101000 135000 154000
2020-07-20 00:00 11.18 67700 167000 (2019) 52300 (2017) 103000 60600 73000 101000 135000 154000
2020-07-19 23:00 11.17 67600 167000 (2019) 53000 (2017) 96500 55100 58300 96700 135000 154000
2020-07-19 22:00 11.17 67600 167000 (2019) 53000 (2017) 96500 55100 58300 96700 135000 154000
2020-07-19 21:00 11.18 67700 167000 (2019) 53000 (2017) 96500 55100 58300 96700 135000 154000
2020-07-19 20:00 11.18 67700 167000 (2019) 53000 (2017) 96500 55100 58300 96700 135000 154000
2020-07-19 19:00 11.22 68000 167000 (2019) 53000 (2017) 96500 55100 58300 96700 135000 154000
2020-07-19 18:00 11.23 68000 167000 (2019) 53000 (2017) 96500 55100 58300 96700 135000 154000
2020-07-19 17:00 11.25 68200 167000 (2019) 53000 (2017) 96500 55100 58300 96700 135000 154000
2020-07-19 16:00 11.26 68200 167000 (2019) 53000 (2017) 96500 55100 58300 96700 135000 154000
2020-07-19 15:00 11.26 68200 167000 (2019) 53000 (2017) 96500 55100 58300 96700 135000 154000
2020-07-19 14:00 11.27 68300 167000 (2019) 53000 (2017) 96500 55100 58300 96700 135000 154000
2020-07-19 13:00 11.30 68500 167000 (2019) 53000 (2017) 96500 55100 58300 96700 135000 154000
2020-07-19 12:00 11.30 68500 167000 (2019) 53000 (2017) 96500 55100 58300 96700 135000 154000
2020-07-19 11:00 11.31 68600 167000 (2019) 53000 (2017) 96500 55100 58300 96700 135000 154000
2020-07-19 10:00 11.31 68600 167000 (2019) 53000 (2017) 96500 55100 58300 96700 135000 154000
2020-07-19 09:00 11.36 68900 167000 (2019) 53000 (2017) 96500 55100 58300 96700 135000 154000
2020-07-19 08:00 11.35 68900 167000 (2019) 53000 (2017) 96500 55100 58300 96700 135000 154000
2020-07-19 07:00 11.36 68900 167000 (2019) 53000 (2017) 96500 55100 58300 96700 135000 154000
2020-07-19 06:00 11.38 69100 167000 (2019) 53000 (2017) 96500 55100 58300 96700 135000 154000
2020-07-19 05:00 11.40 69200 167000 (2019) 53000 (2017) 96500 55100 58300 96700 135000 154000
2020-07-19 04:00 11.41 69300 167000 (2019) 53000 (2017) 96500 55100 58300 96700 135000 154000
2020-07-19 03:00 11.45 69600 167000 (2019) 53000 (2017) 96500 55100 58300 96700 135000 154000
2020-07-19 02:00 11.50 69900 167000 (2019) 53000 (2017) 96500 55100 58300 96700 135000 154000
2020-07-19 01:00 11.51 70000 167000 (2019) 53000 (2017) 96500 55100 58300 96700 135000 154000
2020-07-19 00:00 11.53 70200 167000 (2019) 53000 (2017) 96500 55100 58300 96700 135000 154000
2020-07-18 23:00 11.57 70500 167000 (2019) 54400 (2017) 100000 56200 58800 102000 141000 157000
2020-07-18 22:00 11.62 70800 167000 (2019) 54400 (2017) 100000 56200 58800 102000 141000 157000
2020-07-18 21:00 11.67 71200 167000 (2019) 54400 (2017) 100000 56200 58800 102000 141000 157000
2020-07-18 20:00 11.70 71400 167000 (2019) 54400 (2017) 100000 56200 58800 102000 141000 157000
2020-07-18 19:00 11.76 71800 167000 (2019) 54400 (2017) 100000 56200 58800 102000 141000 157000
2020-07-18 18:00 11.81 72200 167000 (2019) 54400 (2017) 100000 56200 58800 102000 141000 157000
2020-07-18 17:00 11.84 72400 167000 (2019) 54400 (2017) 100000 56200 58800 102000 141000 157000
2020-07-18 16:00 11.92 73000 167000 (2019) 54400 (2017) 100000 56200 58800 102000 141000 157000
2020-07-18 15:00 11.99 73500 167000 (2019) 54400 (2017) 100000 56200 58800 102000 141000 157000
2020-07-18 14:00 12.06 74100 167000 (2019) 54400 (2017) 100000 56200 58800 102000 141000 157000
2020-07-18 13:00 12.14 74700 167000 (2019) 54400 (2017) 100000 56200 58800 102000 141000 157000
2020-07-18 12:00 12.22 75300 167000 (2019) 54400 (2017) 100000 56200 58800 102000 141000 157000
2020-07-18 11:00 12.27 75600 167000 (2019) 54400 (2017) 100000 56200 58800 102000 141000 157000
2020-07-18 10:00 12.35 76200 167000 (2019) 54400 (2017) 100000 56200 58800 102000 141000 157000
2020-07-18 09:00 12.45 77000 167000 (2019) 54400 (2017) 100000 56200 58800 102000 141000 157000
2020-07-18 08:00 12.54 77700 167000 (2019) 54400 (2017) 100000 56200 58800 102000 141000 157000
2020-07-18 07:00 12.63 78400 167000 (2019) 54400 (2017) 100000 56200 58800 102000 141000 157000
2020-07-18 06:00 12.74 79300 167000 (2019) 54400 (2017) 100000 56200 58800 102000 141000 157000
2020-07-18 05:00 12.81 79800 167000 (2019) 54400 (2017) 100000 56200 58800 102000 141000 157000
2020-07-18 04:00 12.91 80600 167000 (2019) 54400 (2017) 100000 56200 58800 102000 141000 157000
2020-07-18 03:00 13.02 81500 167000 (2019) 54400 (2017) 100000 56200 58800 102000 141000 157000
2020-07-18 02:00 13.13 82400 167000 (2019) 54400 (2017) 100000 56200 58800 102000 141000 157000
2020-07-18 01:00 13.23 83200 167000 (2019) 54400 (2017) 100000 56200 58800 102000 141000 157000
2020-07-18 00:00 13.33 84000 167000 (2019) 54400 (2017) 100000 56200 58800 102000 141000 157000
2020-07-17 23:00 13.45 85000 166000 (2019) 58400 (2017) 94700 59600 61300 88200 131000 152000
2020-07-17 22:00 13.56 85900 166000 (2019) 58400 (2017) 94700 59600 61300 88200 131000 152000
2020-07-17 21:00 13.68 86900 166000 (2019) 58400 (2017) 94700 59600 61300 88200 131000 152000
2020-07-17 20:00 13.76 87500 166000 (2019) 58400 (2017) 94700 59600 61300 88200 131000 152000
2020-07-17 19:00 13.87 88500 166000 (2019) 58400 (2017) 94700 59600 61300 88200 131000 152000
2020-07-17 18:00 13.96 89200 166000 (2019) 58400 (2017) 94700 59600 61300 88200 131000 152000
2020-07-17 17:00 14.06 90100 166000 (2019) 58400 (2017) 94700 59600 61300 88200 131000 152000
2020-07-17 16:00 14.12 90600 166000 (2019) 58400 (2017) 94700 59600 61300 88200 131000 152000
2020-07-17 15:00 14.20 91300 166000 (2019) 58400 (2017) 94700 59600 61300 88200 131000 152000
2020-07-17 14:00 14.30 92200 166000 (2019) 58400 (2017) 94700 59600 61300 88200 131000 152000
2020-07-17 13:00 14.38 92900 166000 (2019) 58400 (2017) 94700 59600 61300 88200 131000 152000
2020-07-17 12:00 14.44 93400 166000 (2019) 58400 (2017) 94700 59600 61300 88200 131000 152000
2020-07-17 11:00 14.50 93900 166000 (2019) 58400 (2017) 94700 59600 61300 88200 131000 152000
2020-07-17 10:00 14.54 94300 166000 (2019) 58400 (2017) 94700 59600 61300 88200 131000 152000
2020-07-17 09:00 14.58 94600 166000 (2019) 58400 (2017) 94700 59600 61300 88200 131000 152000
2020-07-17 08:00 14.63 95100 166000 (2019) 58400 (2017) 94700 59600 61300 88200 131000 152000
2020-07-17 07:00 14.67 95400 166000 (2019) 58400 (2017) 94700 59600 61300 88200 131000 152000
2020-07-17 06:00 14.70 95700 166000 (2019) 58400 (2017) 94700 59600 61300 88200 131000 152000
2020-07-17 05:00 14.72 95900 166000 (2019) 58400 (2017) 94700 59600 61300 88200 131000 152000
2020-07-17 04:00 14.74 96000 166000 (2019) 58400 (2017) 94700 59600 61300 88200 131000 152000
2020-07-17 03:00 14.75 96100 166000 (2019) 58400 (2017) 94700 59600 61300 88200 131000 152000
2020-07-17 02:00 14.78 96400 166000 (2019) 58400 (2017) 94700 59600 61300 88200 131000 152000
2020-07-17 01:00 14.76 96200 166000 (2019) 58400 (2017) 94700 59600 61300 88200 131000 152000
2020-07-17 00:00 14.76 96200 166000 (2019) 58400 (2017) 94700 59600 61300 88200 131000 152000
2020-07-16 23:00 14.76 96200 162000 (2019) 63300 (2017) 93900 64400 65900 78300 130000 149000
2020-07-16 22:00 14.74 96000 162000 (2019) 63300 (2017) 93900 64400 65900 78300 130000 149000
2020-07-16 21:00 14.71 95800 162000 (2019) 63300 (2017) 93900 64400 65900 78300 130000 149000
2020-07-16 20:00 14.69 95600 162000 (2019) 63300 (2017) 93900 64400 65900 78300 130000 149000
2020-07-16 19:00 14.65 95200 162000 (2019) 63300 (2017) 93900 64400 65900 78300 130000 149000
2020-07-16 18:00 14.64 95100 162000 (2019) 63300 (2017) 93900 64400 65900 78300 130000 149000
2020-07-16 17:00 14.61 94900 162000 (2019) 63300 (2017) 93900 64400 65900 78300 130000 149000
2020-07-16 16:00 14.56 94400 162000 (2019) 63300 (2017) 93900 64400 65900 78300 130000 149000
2020-07-16 15:00 14.53 94200 162000 (2019) 63300 (2017) 93900 64400 65900 78300 130000 149000
2020-07-16 14:00 14.49 93800 162000 (2019) 63300 (2017) 93900 64400 65900 78300 130000 149000
2020-07-16 13:00 14.45 93500 162000 (2019) 63300 (2017) 93900 64400 65900 78300 130000 149000
2020-07-16 12:00 14.42 93200 162000 (2019) 63300 (2017) 93900 64400 65900 78300 130000 149000
2020-07-16 11:00 14.39 92900 162000 (2019) 63300 (2017) 93900 64400 65900 78300 130000 149000
2020-07-16 10:00 14.36 92700 162000 (2019) 63300 (2017) 93900 64400 65900 78300 130000 149000
2020-07-16 09:00 14.36 92700 162000 (2019) 63300 (2017) 93900 64400 65900 78300 130000 149000
2020-07-16 08:00 14.33 92400 162000 (2019) 63300 (2017) 93900 64400 65900 78300 130000 149000
2020-07-16 07:00 14.31 92200 162000 (2019) 63300 (2017) 93900 64400 65900 78300 130000 149000
2020-07-16 06:00 14.32 92300 162000 (2019) 63300 (2017) 93900 64400 65900 78300 130000 149000
2020-07-16 05:00 14.31 92200 162000 (2019) 63300 (2017) 93900 64400 65900 78300 130000 149000
2020-07-16 04:00 14.26 91800 162000 (2019) 63300 (2017) 93900 64400 65900 78300 130000 149000
2020-07-16 03:00 14.23 91600 162000 (2019) 63300 (2017) 93900 64400 65900 78300 130000 149000
2020-07-16 02:00 14.20 91300 162000 (2019) 63300 (2017) 93900 64400 65900 78300 130000 149000
2020-07-16 01:00 14.16 90900 162000 (2019) 63300 (2017) 93900 64400 65900 78300 130000 149000
2020-07-16 00:00 14.10 90400 162000 (2019) 63300 (2017) 93900 64400 65900 78300 130000 149000
2020-07-15 23:00 14.04 89900 162000 (2019) 63500 (2017) 96600 65900 69600 81600 131000 150000
2020-07-15 22:00 13.97 89300 162000 (2019) 63500 (2017) 96600 65900 69600 81600 131000 150000
2020-07-15 21:00 13.88 88600 162000 (2019) 63500 (2017) 96600 65900 69600 81600 131000 150000
2020-07-15 20:00 13.77 87600 162000 (2019) 63500 (2017) 96600 65900 69600 81600 131000 150000
2020-07-15 19:00 13.64 86500 162000 (2019) 63500 (2017) 96600 65900 69600 81600 131000 150000
2020-07-15 18:00 13.49 85300 162000 (2019) 63500 (2017) 96600 65900 69600 81600 131000 150000
2020-07-15 17:00 13.33 84000 162000 (2019) 63500 (2017) 96600 65900 69600 81600 131000 150000
2020-07-15 16:00 13.15 82500 162000 (2019) 63500 (2017) 96600 65900 69600 81600 131000 150000
2020-07-15 15:00 12.95 80900 162000 (2019) 63500 (2017) 96600 65900 69600 81600 131000 150000
2020-07-15 14:00 12.75 79300 162000 (2019) 63500 (2017) 96600 65900 69600 81600 131000 150000
2020-07-15 13:00 12.55 77800 162000 (2019) 63500 (2017) 96600 65900 69600 81600 131000 150000
2020-07-15 12:00 12.38 76500 162000 (2019) 63500 (2017) 96600 65900 69600 81600 131000 150000
2020-07-15 11:00 12.24 75400 162000 (2019) 63500 (2017) 96600 65900 69600 81600 131000 150000
2020-07-15 10:00 12.08 74200 162000 (2019) 63500 (2017) 96600 65900 69600 81600 131000 150000
2020-07-15 09:00 11.96 73300 162000 (2019) 63500 (2017) 96600 65900 69600 81600 131000 150000
2020-07-15 08:00 11.92 73000 162000 (2019) 63500 (2017) 96600 65900 69600 81600 131000 150000
2020-07-15 07:00 11.86 72600 162000 (2019) 63500 (2017) 96600 65900 69600 81600 131000 150000
2020-07-15 06:00 11.73 71600 162000 (2019) 63500 (2017) 96600 65900 69600 81600 131000 150000
2020-07-15 05:00 11.65 71000 162000 (2019) 63500 (2017) 96600 65900 69600 81600 131000 150000
2020-07-15 04:00 11.61 70700 162000 (2019) 63500 (2017) 96600 65900 69600 81600 131000 150000
2020-07-15 03:00 11.62 70800 162000 (2019) 63500 (2017) 96600 65900 69600 81600 131000 150000
2020-07-15 02:00 11.64 71000 162000 (2019) 63500 (2017) 96600 65900 69600 81600 131000 150000
2020-07-15 01:00 11.62 70800 162000 (2019) 63500 (2017) 96600 65900 69600 81600 131000 150000
2020-07-15 00:00 11.66 71100 162000 (2019) 63500 (2017) 96600 65900 69600 81600 131000 150000
2020-07-14 23:00 11.66 71100 163000 (2019) 61200 (2017) 98000 65400 71600 82800 132000 151000
2020-07-14 22:00 11.66 71100 163000 (2019) 61200 (2017) 98000 65400 71600 82800 132000 151000
2020-07-14 21:00 11.67 71200 163000 (2019) 61200 (2017) 98000 65400 71600 82800 132000 151000
2020-07-14 20:00 11.66 71100 163000 (2019) 61200 (2017) 98000 65400 71600 82800 132000 151000
2020-07-14 19:00 11.67 71200 163000 (2019) 61200 (2017) 98000 65400 71600 82800 132000 151000
2020-07-14 18:00 11.67 71200 163000 (2019) 61200 (2017) 98000 65400 71600 82800 132000 151000
2020-07-14 17:00 11.67 71200 163000 (2019) 61200 (2017) 98000 65400 71600 82800 132000 151000
2020-07-14 16:00 11.69 71300 163000 (2019) 61200 (2017) 98000 65400 71600 82800 132000 151000
2020-07-14 15:00 11.69 71300 163000 (2019) 61200 (2017) 98000 65400 71600 82800 132000 151000
2020-07-14 14:00 11.69 71300 163000 (2019) 61200 (2017) 98000 65400 71600 82800 132000 151000
2020-07-14 13:00 11.70 71400 163000 (2019) 61200 (2017) 98000 65400 71600 82800 132000 151000
2020-07-14 12:00 11.69 71300 163000 (2019) 61200 (2017) 98000 65400 71600 82800 132000 151000
2020-07-14 11:00 11.70 71400 163000 (2019) 61200 (2017) 98000 65400 71600 82800 132000 151000
2020-07-14 10:00 11.72 71500 163000 (2019) 61200 (2017) 98000 65400 71600 82800 132000 151000
2020-07-14 09:00 11.73 71600 163000 (2019) 61200 (2017) 98000 65400 71600 82800 132000 151000
2020-07-14 08:00 11.74 71700 163000 (2019) 61200 (2017) 98000 65400 71600 82800 132000 151000
2020-07-14 07:00 11.73 71600 163000 (2019) 61200 (2017) 98000 65400 71600 82800 132000 151000
2020-07-14 06:00 11.75 71800 163000 (2019) 61200 (2017) 98000 65400 71600 82800 132000 151000
2020-07-14 05:00 11.74 71700 163000 (2019) 61200 (2017) 98000 65400 71600 82800 132000 151000
2020-07-14 04:00 11.76 71800 163000 (2019) 61200 (2017) 98000 65400 71600 82800 132000 151000
2020-07-14 03:00 11.76 71800 163000 (2019) 61200 (2017) 98000 65400 71600 82800 132000 151000
2020-07-14 02:00 11.79 72100 163000 (2019) 61200 (2017) 98000 65400 71600 82800 132000 151000
2020-07-14 01:00 11.77 71900 163000 (2019) 61200 (2017) 98000 65400 71600 82800 132000 151000
2020-07-14 00:00 11.77 71900 163000 (2019) 61200 (2017) 98000 65400 71600 82800 132000 151000

A total of 751 rows are displayed for years 2015 through 2019.